Regional Weather Roundup
Issued by NWS New Orleans/Baton Rouge, LA

Home | Current Version | Previous Version | Graphics & Text | Print | Product List | Glossary On
Versions: 1 2 3 4 5 6 7 8 9 10 11 12 13 14 15 16 17 18 19 20 21 22 23 24 25 26 27 28 29 30 31 32 33 34 35 36 37 38 39 40 41 42 43 44 45 46 47 48 49 50
963
ASUS44 KLIX 062001
RWRLIX
NEW ORLEANS REGIONAL WEATHER ROUNDUP
NATIONAL WEATHER SERVICE NEW ORLEANS LA
200 PM CST FRI MAR 06 2015

NOTE: "FAIR" INDICATES FEW OR NO CLOUDS BELOW 12,000 FEET WITH NO
      SIGNIFICANT WEATHER AND/OR OBSTRUCTIONS TO VISIBILITY.
      SKY/WX - SKY CONDITION AND SIGNIFICANT WEATHER.
      TMP - AIR TEMPERATURE.     DP    - DEWPOINT TEMPERATURE.
      RH  - RELATIVE HUMIDITY.   PRES  - PRESSURE.
      HI  - HEAT INDEX.          WCI   - WIND CHILL INDEX.

*  THESE STATIONS ARE NOT NWS OR FAA STATIONS AND ARE NOT UNDER
   NWS QUALITY CONTROL.

LAZ038-040-048-061>063-065>067-069-062100-
SOUTHEAST LOUISIANA

CITY           SKY/WX    TMP DP  RH WIND       PRES   REMARKS
N.O. AUDUBON     N/A     50  22  33 MISG        N/A
N.O. INTL ARPT CLOUDY    50  18  28 N15       30.44F
N.O. LAKEFRONT PTSUNNY   52  20  28 N12       30.44F
SLIDELL        PTSUNNY   53  14  21 N13G18    30.41F
BATON ROUGE    SUNNY     52  13  21 N12G18    30.44F
BOOTHVILLE     MOSUNNY   47  28  47 N9G17     30.42F
BELLE CHASSE   CLOUDY    50  15  24 N10       30.42F
BOGALUSA*        N/A     54  14  20 N14       30.45F
GALLIANO*        N/A     51  23  33 MISG      30.43F
NEW ROADS*     NOT AVBL
GONZALES*      NOT AVBL
HAMMOND*       NOT AVBL
HOUMA*         SUNNY     52  19  28 N15       30.43F
PORT FOURCHON* CLEAR     50  25  37 N12G20    30.45F

$$

MSZ070-080>082-062100-
SOUTHERN MISSISSIPPI

CITY           SKY/WX    TMP DP  RH WIND       PRES   REMARKS
MCCOMB         SUNNY     50  11  20 N12       30.44F
GULFPORT       PTSUNNY   52  14  22 NE12      30.41F
BILOXI         MOSUNNY   51  16  24 NE10      30.40F
PASCAGOULA     PTSUNNY   52  12  20 N16G26    30.39F
STENNIS ARPT*  SUNNY     52   1  12 N12G17    30.42F

$$

COASTAL OBSERVATIONS
LAKE AND NEARSHORE STATIONS

STATION/POSITION TIME  TEMP    WIND        PRES    WAVE
                       AIR SEA DIR/SP/G            HT/PER
                 (UTC) (F)     (DEG/KT/KT) (MB)    (FT/S)
PASCAGOULA       1918   51     360/ 13/ 19 1029.2
WAVELAND YACHT   1918   47 51   20/ 11/ 16 1030.2
GRAND ISLE       1918   47 56   30/ 11/ 19 1031.1
SOUTHWEST PASS   1918   49 43   20/ 19/ 22 1030.8
NEW CANAL        1918   44     360/  9/ 11 1031.7
SHELL BEACH      1918   46 53   10/ 15/ 18 1030.5

OFFSHORE STATIONS

STATION/POSITION TIME  TEMP    WIND        PRES    WAVE
                       AIR SEA DIR/SP/G            HT/PER
                 (UTC) (F)     (DEG/KT/KT) (MB)    (FT/S)
64 S DAUPHIN ISL 1941   47 66   10/ 23/ 27 1028.6    5/ 6

$$




USA.gov is the U.S. government's official web portal to all federal, state and local government web resources and services.